This is the latest recevied weather packets stored in our database for station/object AD7ZD. If no packets are shown the sender has not sent any weather packets the latest 10 day(s).
| Time | Temp. | Humidity | Pressure | Rain* | Wind** | Luminosity | Snow |
|---|---|---|---|---|---|---|---|
| 1777611566 | 12.22° C | 32% | 1014.4 hPa | 0 mm | - | 0 W/m² | - |
| 1777611263 | 12.22° C | 34% | 1014.2 hPa | 0 mm | - | 0 W/m² | - |
| 1777610960 | 13.33° C | 29% | 1014.2 hPa | 0 mm | - | 0 W/m² | - |
| 1777610655 | 13.89° C | 28% | 1014.3 hPa | 0 mm | - | 0 W/m² | - |
| 1777610355 | 14.44° C | 26% | 1014.1 hPa | 0 mm | - | 0 W/m² | - |
| 1777610051 | 15° C | 25% | 1013.9 hPa | 0 mm | - | 0 W/m² | - |
| 1777609748 | 15° C | 25% | 1013.9 hPa | 0 mm | - | 0 W/m² | - |
| 1777609444 | 15° C | 25% | 1013.9 hPa | 0 mm | - | 0 W/m² | - |
| 1777609142 | 15.56° C | 25% | 1013.7 hPa | 0 mm | - | 0 W/m² | - |
| 1777608838 | 15.56° C | 25% | 1013.8 hPa | 0 mm | - | 0 W/m² | - |
| 1777608535 | 15.56° C | 24% | 1013.6 hPa | 0 mm | - | 0 W/m² | - |
| 1777608233 | 16.11° C | 24% | 1013.7 hPa | 0 mm | - | 0 W/m² | - |
| 1777607931 | 16.67° C | 24% | 1013.4 hPa | 0 mm | - | 0 W/m² | - |
| 1777607626 | 17.22° C | 23% | 1013.4 hPa | 0 mm | - | 0 W/m² | - |
| 1777607323 | 16.67° C | 23% | 1013.4 hPa | 0 mm | - | 0 W/m² | - |
| 1777607018 | 16.67° C | 23% | 1013.3 hPa | 0 mm | - | 0 W/m² | - |
| 1777606715 | 16.67° C | 23% | 1013.4 hPa | 0 mm | - | 0 W/m² | - |
| 1777606410 | 17.22° C | 23% | 1013.3 hPa | 0 mm | - | 0 W/m² | - |
| 1777606105 | 17.22° C | 23% | 1013.4 hPa | 0 mm | - | 0 W/m² | - |
| 1777605802 | 17.22° C | 22% | 1013.1 hPa | 0 mm | - | 0 W/m² | - |
| 1777605501 | 17.22° C | 22% | 1013 hPa | 0 mm | - | 0 W/m² | - |
| 1777605197 | 17.22° C | 22% | 1012.9 hPa | 0 mm | - | 0 W/m² | - |
| 1777604894 | 17.78° C | 22% | 1013.1 hPa | 0 mm | - | 0 W/m² | - |
| 1777604589 | 17.78° C | 22% | 1012.9 hPa | 0 mm | - | 0 W/m² | - |
| 1777604286 | 18.33° C | 21% | 1013 hPa | 0 mm | - | 0 W/m² | - |
* Rain latest hour (hover to see other rain measurements)
** Current wind speed in m/s (hover to see current wind gust speed)